Location: Berville
(49.1893°N, 2.0748°E)
Time: 20:15:35
(UTC+00:00)

FENGYUN 1C DEB - Pass Details

Date: 29 February 2024
Orbit: 768 x 960 km, 99.0° (Epoch: 13 April)

Event Time Altitude Azimuth Distance (km) Brightness Sun altitude
Exits shadow 20:16:59 54° 50° (NE) 1,155 ? -27.0°
Drops below altitude 10° 20:22:22 10° 352° (N) 2,670 ? -27.8°
Sets 20:24:50 0° 348° (NNW) 3,599 ? -28.2°
